| time (UTC) | temp F | wind direction | speed MPH | gust MPH | rain 1hr in | rain 24hr in | rain mn in | humidity % | barometer mb |
| 20260902161718 | 75 | 150 | 3.0 | 7.0 | 0.00 | 0.00 | 0.00 | 65 | 1021.6 |
| 20260902160227 | 76 | 169 | 2.0 | 9.0 | 0.00 | 0.00 | 0.00 | 63 | 1021.8 |
| 20260902154719 | 76 | 174 | 3.0 | 7.0 | 0.00 | 0.00 | 0.00 | 63 | 1021.6 |
| 20260902153217 | 76 | 277 | 2.0 | 8.0 | 0.00 | 0.00 | 0.00 | 63 | 1021.6 |
| 20260902151723 | 77 | 221 | 3.0 | 8.0 | 0.00 | 0.00 | 0.00 | 62 | 1021.6 |
| 20260902150218 | 77 | 159 | 4.0 | 7.0 | 0.00 | 0.00 | 0.00 | 62 | 1021.9 |
| 20260902144731 | 76 | 180 | 4.0 | 9.0 | 0.00 | 0.00 | 0.00 | 63 | 1022.0 |
| 20260902143223 | 76 | 171 | 3.0 | 7.0 | 0.00 | 0.00 | 0.00 | 65 | 1022.0 |
| 20260902141722 | 76 | 163 | 2.0 | 5.0 | 0.00 | 0.00 | 0.00 | 66 | 1022.2 |
| 20260902140225 | 75 | 172 | 2.0 | 7.0 | 0.00 | 0.00 | 0.00 | 67 | 1022.4 |
| 20260902134721 | 75 | 163 | 3.0 | 8.0 | 0.00 | 0.00 | 0.00 | 66 | 1022.4 |
| 20260902133229 | 76 | 213 | 2.0 | 5.0 | 0.00 | 0.00 | 0.00 | 66 | 1022.6 |
| 20260902131714 | 75 | 167 | 2.0 | 7.0 | 0.00 | 0.00 | 0.00 | 65 | 1022.7 |
| 20260902130219 | 74 | 130 | 2.0 | 8.0 | 0.00 | 0.00 | 0.00 | 69 | 1022.9 |
| 20260902124719 | 74 | 164 | 3.0 | 8.0 | 0.00 | 0.00 | 0.00 | 68 | 1023.0 |
| 20260902123219 | 74 | 146 | 2.0 | 7.0 | 0.00 | 0.00 | 0.00 | 68 | 1023.2 |
| 20260902121722 | 74 | 210 | 3.0 | 11.0 | 0.00 | 0.00 | 0.00 | 67 | 1023.2 |
| 20260902120226 | 73 | 221 | 2.0 | 8.0 | 0.00 | 0.00 | 0.00 | 68 | 1023.3 |
| 20260902114721 | 74 | 185 | 2.0 | 12.0 | 0.00 | 0.00 | 0.00 | 67 | 1023.2 |
| 20260902113225 | 74 | 230 | 5.0 | 9.0 | 0.00 | 0.00 | 0.00 | 67 | 1023.4 |
| 20260902111723 | 73 | 152 | 3.0 | 8.0 | 0.00 | 0.00 | 0.00 | 69 | 1023.4 |
| 20260902110216 | 74 | 190 | 4.0 | 10.0 | 0.00 | 0.00 | 0.00 | 67 | 1023.4 |
| 20260902104721 | 74 | 210 | 2.0 | 7.0 | 0.00 | 0.00 | 0.00 | 68 | 1023.6 |
| 20260902103225 | 74 | 217 | 4.0 | 10.0 | 0.00 | 0.00 | 0.00 | 68 | 1023.9 |
| 20260902101728 | 74 | 219 | 5.0 | 9.0 | 0.00 | 0.00 | 0.00 | 68 | 1023.9 |
| 20260902100221 | 73 | 194 | 3.0 | 7.0 | 0.00 | 0.00 | 0.00 | 71 | 1024.1 |
| 20260902094731 | 72 | 168 | 3.0 | 6.0 | 0.00 | 0.00 | 0.00 | 73 | 1024.0 |
| 20260902093213 | 71 | 279 | 2.0 | 5.0 | 0.00 | 0.00 | 0.00 | 76 | 1024.1 |
| 20260902091727 | 71 | 240 | 2.0 | 4.0 | 0.00 | 0.00 | 0.00 | 76 | 1024.0 |
| 20260902090216 | 69 | 190 | 1.0 | 4.0 | 0.00 | 0.00 | 0.00 | 79 | 1024.1 |
| 20260902084729 | 68 | 265 | 2.0 | 4.0 | 0.00 | 0.00 | 0.00 | 78 | 1024.2 |
| 20260902083224 | 68 | 241 | 1.0 | 3.0 | 0.00 | 0.00 | 0.00 | 80 | 1024.1 |
| 20260902081732 | 67 | 269 | 0.0 | 0.0 | 0.00 | 0.00 | 0.00 | 84 | 1023.9 |
| 20260902080228 | 67 | 267 | 1.0 | 4.0 | 0.00 | 0.00 | 0.00 | 83 | 1023.8 |
| 20260902074717 | 66 | 281 | 2.0 | 4.0 | 0.00 | 0.00 | 0.00 | 83 | 1023.8 |
| 20260902073218 | 65 | 199 | 0.0 | 0.0 | 0.00 | 0.00 | 0.00 | 87 | 1023.8 |
| 20260902071723 | 64 | 121 | 0.0 | 0.0 | 0.00 | 0.00 | 0.00 | 91 | 1023.6 |
| 20260902070228 | 62 | 112 | 0.0 | 0.0 | 0.00 | 0.00 | 0.00 | 91 | 1023.5 |
| 20260902064725 | 62 | 81 | 0.0 | 0.0 | 0.00 | 0.00 | 0.00 | 91 | 1023.5 |
| 20260902063231 | 62 | 61 | 0.0 | 1.0 | 0.00 | 0.00 | 0.00 | 91 | 1023.5 |
| 20260902061727 | 62 | 56 | 2.0 | 3.0 | 0.00 | 0.00 | 0.00 | 91 | 1023.4 |
| 20260902060215 | 62 | 61 | 2.0 | 3.0 | 0.00 | 0.00 | 0.00 | 91 | 1023.5 |
| 20260902054715 | 61 | 68 | 2.0 | 3.0 | 0.00 | 0.00 | 0.00 | 93 | 1023.5 |
| 20260902053228 | 61 | 83 | 2.0 | 3.0 | 0.00 | 0.00 | 0.00 | 93 | 1023.2 |
| 20260902051723 | 61 | 74 | 2.0 | 3.0 | 0.00 | 0.00 | 0.00 | 93 | 1023.1 |
| 20260902050218 | 61 | 80 | 1.0 | 2.0 | 0.00 | 0.00 | 0.00 | 93 | 1023.2 |
| 20260902044720 | 61 | 101 | 1.0 | 3.0 | 0.00 | 0.00 | 0.00 | 93 | 1023.1 |
| 20260902043219 | 61 | 81 | 0.0 | 2.0 | 0.00 | 0.00 | 0.00 | 92 | 1023.0 |
| 20260902041712 | 61 | 84 | 1.0 | 4.0 | 0.00 | 0.00 | 0.00 | 92 | 1022.9 |
| 20260902040229 | 61 | 83 | 2.0 | 3.0 | 0.00 | 0.00 | 0.00 | 91 | 1022.8 |
| 20260902034717 | 61 | 111 | 2.0 | 4.0 | 0.00 | 0.00 | 0.00 | 90 | 1023.0 |
| 20260902033213 | 61 | 82 | 2.0 | 3.0 | 0.00 | 0.00 | 0.00 | 90 | 1023.0 |
| 20260902031731 | 61 | 69 | 2.0 | 3.0 | 0.00 | 0.00 | 0.00 | 90 | 1023.0 |
| 20260902030219 | 62 | 72 | 2.0 | 4.0 | 0.00 | 0.00 | 0.00 | 89 | 1023.0 |
| 20260902024722 | 62 | 34 | 2.0 | 6.0 | 0.00 | 0.00 | 0.00 | 90 | 1023.1 |
| 20260902023221 | 62 | 52 | 2.0 | 6.0 | 0.00 | 0.00 | 0.00 | 90 | 1023.0 |
| 20260902021717 | 62 | 57 | 3.0 | 4.0 | 0.00 | 0.00 | 0.00 | 90 | 1023.0 |
| 20260902020226 | 62 | 84 | 1.0 | 4.0 | 0.00 | 0.00 | 0.00 | 89 | 1023.0 |
| 20260902014725 | 62 | 78 | 2.0 | 5.0 | 0.00 | 0.00 | 0.00 | 88 | 1023.0 |
| 20260902013231 | 62 | 61 | 3.0 | 6.0 | 0.00 | 0.00 | 0.00 | 89 | 1023.1 |
| 20260902011718 | 61 | 74 | 2.0 | 3.0 | 0.00 | 0.00 | 0.00 | 91 | 1023.1 |
| 20260902010216 | 61 | 91 | 1.0 | 4.0 | 0.00 | 0.00 | 0.00 | 91 | 1023.2 |
| 20260902004716 | 61 | 88 | 2.0 | 3.0 | 0.00 | 0.00 | 0.00 | 91 | 1023.2 |
| 20260902003224 | 62 | 76 | 1.0 | 4.0 | 0.00 | 0.00 | 0.00 | 90 | 1023.2 |
| 20260902001720 | 62 | 77 | 2.0 | 3.0 | 0.00 | 0.00 | 0.00 | 89 | 1023.2 |
| 20260901234718 | 62 | 69 | 2.0 | 4.0 | 0.00 | 0.00 | 0.00 | 90 | 1023.3 |
| 20260901233216 | 62 | 80 | 1.0 | 2.0 | 0.00 | 0.00 | 0.00 | 90 | 1023.3 |
| 20260901231726 | 62 | 67 | 3.0 | 3.0 | 0.00 | 0.00 | 0.00 | 90 | 1023.2 |
| 20260901230223 | 62 | 70 | 2.0 | 3.0 | 0.00 | 0.00 | 0.00 | 89 | 1023.2 |
| 20260901224728 | 62 | 87 | 2.0 | 3.0 | 0.00 | 0.00 | 0.00 | 89 | 1023.3 |
| 20260901223216 | 63 | 67 | 2.0 | 3.0 | 0.00 | 0.00 | 0.00 | 88 | 1023.2 |
| 20260901221729 | 63 | 109 | 2.0 | 3.0 | 0.00 | 0.00 | 0.00 | 88 | 1023.4 |
| 20260901220214 | 63 | 65 | 1.0 | 2.0 | 0.00 | 0.00 | 0.00 | 88 | 1023.6 |
| 20260901214728 | 64 | 101 | 0.0 | 0.0 | 0.00 | 0.00 | 0.00 | 86 | 1023.6 |
| 20260901213218 | 64 | 113 | 2.0 | 3.0 | 0.00 | 0.00 | 0.00 | 85 | 1023.4 |
| 20260901211721 | 64 | 67 | 2.0 | 4.0 | 0.00 | 0.00 | 0.00 | 84 | 1023.4 |
| 20260901210220 | 64 | 60 | 2.0 | 4.0 | 0.00 | 0.00 | 0.00 | 84 | 1023.4 |
| 20260901204720 | 64 | 80 | 2.0 | 4.0 | 0.00 | 0.00 | 0.00 | 85 | 1023.5 |
| 20260901203215 | 64 | 65 | 2.0 | 4.0 | 0.00 | 0.00 | 0.00 | 84 | 1023.4 |
| 20260901201716 | 64 | 77 | 2.0 | 5.0 | 0.00 | 0.00 | 0.00 | 84 | 1023.5 |
| 20260901200217 | 64 | 54 | 4.0 | 8.0 | 0.00 | 0.00 | 0.00 | 83 | 1023.4 |
| 20260901194718 | 64 | 69 | 3.0 | 5.0 | 0.00 | 0.00 | 0.00 | 83 | 1023.4 |
| 20260901193220 | 64 | 72 | 3.0 | 5.0 | 0.00 | 0.00 | 0.00 | 83 | 1023.2 |
| 20260901191713 | 65 | 64 | 5.0 | 6.0 | 0.00 | 0.00 | 0.00 | 82 | 1023.1 |
| 20260901190227 | 65 | 71 | 3.0 | 5.0 | 0.00 | 0.00 | 0.00 | 83 | 1023.0 |
| 20260901184715 | 64 | 66 | 3.0 | 5.0 | 0.00 | 0.00 | 0.00 | 84 | 1022.7 |
| 20260901183220 | 65 | 63 | 4.0 | 5.0 | 0.00 | 0.00 | 0.00 | 82 | 1022.7 |
| 20260901181724 | 64 | 63 | 4.0 | 5.0 | 0.00 | 0.00 | 0.00 | 84 | 1022.6 |
| 20260901180217 | 65 | 61 | 2.0 | 3.0 | 0.00 | 0.00 | 0.00 | 84 | 1022.5 |
| 20260901174711 | 67 | 65 | 1.0 | 3.0 | 0.00 | 0.00 | 0.00 | 81 | 1022.4 |
| 20260901173212 | 69 | 71 | 2.0 | 3.0 | 0.00 | 0.00 | 0.00 | 77 | 1022.4 |
| 20260901171716 | 72 | 143 | 1.0 | 2.0 | 0.00 | 0.00 | 0.00 | 73 | 1022.3 |
| 20260901170219 | 73 | 142 | 1.0 | 3.0 | 0.00 | 0.00 | 0.00 | 69 | 1022.2 |
| 20260901164726 | 72 | 201 | 1.0 | 4.0 | 0.00 | 0.00 | 0.00 | 70 | 1022.3 |
| 20260901163212 | 73 | 215 | 1.0 | 5.0 | 0.00 | 0.00 | 0.00 | 68 | 1022.3 |